Tracking 19170 objects as of 23-May-2018
HD Live streaming from Space Station
objects crossing your sky now

NOAA 16 DEB

Track NOAA 16 DEB now!
10-day predictions


NORAD ID: 42382
Int'l Code: 2000-055SA
Perigee: 845.2 km
Apogee: 916.3 km
Inclination: 99.0 °
Period: 102.4 minutes
Semi major axis: 7251 km
RCS: Unknown
Launch date: September 21, 2000
Source: United States (US)
Launch site: AIR FORCE WESTERN TEST RANGE (AFWTR)

Note: This is SATELLITE DEBRIS
aabbcc
Your satellite tracking list
Your tracking list is empty




NASA's NSSDC Master Catalog

Two Line Element Set (TLE):
1 42382U 00055SA  18142.41247743 +.00001084 +00000-0 +68281-3 0  9998
2 42382 098.9628 214.6635 0049077 231.4110 128.2657 14.05851529112970
Source of the keplerian elements: AFSPC